ECMWFNIL_925_temp_000.txt.gz
Temp
20 19 19 19 18 18 18 18 18 17 17 17 17 17 17 17 16 16 16 16 16 16 16 16 16 16 16 16 16 16 16 16 16 16 16 16 15 15 14 14 14 14
20 19 19 19 19 18 18 18 18 18 18 18 18 17 17 17 16 16 16 16 16 16 16 16 16 16 16 16 16 16 16 16 15 15 16 15 15 15 14 14 14 14
20 20 19 19 19 18 18 18 18 18 18 18 18 17 17 17 16 16 16 16 16 16 16 16 16 16 16 16 16 16 15 15 15 15 15 15 15 15 15 14 14 14
21 20 19 20 19 19 18 19 18 18 18 18 18 18 17 17 17 16 16 17 17 17 16 16 16 16 16 16 16 16 15 15 15 15 15 15 15 15 15 15 14 14
21 20 19 20 20 19 19 19 19 18 18 18 18 18 17 17 17 17 17 17 17 17 16 16 16 16 16 16 16 16 15 15 15 15 15 15 15 15 15 15 14 14
21 20 19 19 20 20 19 19 19 19 19 18 18 18 18 18 17 17 17 17 17 17 17 16 16 16 16 16 16 16 16 16 15 15 15 15 15 15 15 15 15 14
21 20 19 19 20 20 20 19 19 19 19 19 18 18 18 18 18 17 17 17 17 17 17 17 16 16 16 16 16 16 16 16 15 15 15 15 15 15 15 15 15 14
21 20 19 19 20 20 20 20 20 20 19 19 18 18 18 18 18 18 18 17 17 17 17 17 17 16 16 16 16 16 16 16 16 16 15 15 15 15 15 15 15 15
21 20 19 19 20 20 20 19 19 19 19 19 19 18 18 18 18 18 18 18 17 17 17 17 17 17 16 16 16 16 16 16 16 16 16 15 15 15 15 15 15 15
20 20 20 20 20 19 18 19 19 19 18 19 19 19 18 18 18 18 18 18 17 17 17 17 17 17 17 17 17 17 16 16 16 16 16 16 16 15 15 15 15 15
20 21 20 19 17 16 16 18 18 18 18 18 18 18 18 18 18 18 17 17 17 17 17 17 16 16 16 16 16 16 16 16 16 16 16 16 16 16 15 15 15 15
19 19 18 18 17 16 15 16 15 15 16 17 16 16 17 18 18 18 18 17 17 17 17 16 16 16 16 16 16 16 16 16 16 16 16 16 16 16 16 15 15 15
17 17 16 16 17 16 16 16 15 15 16 17 17 15 15 16 16 17 17 17 17 17 17 17 16 16 16 16 16 16 16 16 16 16 16 16 16 16 16 15 15 15
16 16 15 15 15 15 15 15 16 15 15 16 16 15 15 16 16 15 16 17 17 17 17 17 17 16 16 16 16 15 15 15 15 16 16 16 16 16 16 16 15 15
15 16 16 15 15 15 15 15 16 16 15 15 15 14 16 16 16 16 16 16 17 17 17 17 17 17 17 17 16 16 15 15 15 15 16 16 16 16 16 16 15 15
16 16 16 16 16 16 16 16 16 16 16 16 15 16 17 17 16 17 16 16 17 17 17 17 17 17 17 17 16 16 16 16 16 16 15 16 16 16 16 16 15 15
17 17 16 16 17 16 16 16 16 16 17 17 17 17 17 17 17 17 16 16 17 17 17 16 16 16 17 16 16 16 15 15 15 16 16 16 16 16 16 15 15 15
17 16 16 16 16 16 16 17 17 17 17 17 17 17 17 17 17 17 17 16 17 16 16 16 16 16 16 16 15 15 14 15 15 15 15 16 15 15 15 15 15 15
16 16 16 16 17 17 17 17 17 17 17 17 17 17 17 17 17 17 16 16 16 16 15 15 15 15 15 15 15 15 14 15 15 15 15 15 15 15 15 15 15 14
17 17 17 17 17 17 17 17 17 17 17 17 17 17 17 17 16 16 16 16 15 15 15 15 15 15 15 15 14 15 15 15 15 15 15 14 14 15 14 14 14 14
17 17 17 17 17 17 17 17 17 16 16 16 16 16 16 16 16 16 16 15 15 15 15 15 15 14 14 14 14 14 14 15 15 14 14 14 13 13 13 13 13 14
16 16 16 16 16 16 16 16 16 16 16 16 16 16 16 16 16 15 15 15 15 15 15 14 14 14 14 14 14 13 13 14 14 13 13 13 12 12 12 12 12 13
16 16 16 16 16 16 16 16 16 16 16 16 16 16 15 15 15 15 15 15 15 14 14 14 14 14 14 13 13 12 13 13 13 12 12 12 12 11 11 11 12 12
16 16 16 16 16 16 15 15 15 15 15 15 15 15 15 15 15 15 15 15 15 14 14 14 14 13 13 13 12 12 12 12 12 12 12 11 11 11 11 11 11 11
16 16 16 15 15 15 15 15 15 15 15 15 15 15 15 15 15 15 15 15 15 14 14 14 13 13 13 12 12 12 12 12 12 12 11 11 11 11 11 11 11 11
15 15 15 15 15 15 15 15 15 15 15 15 15 15 15 15 14 14 14 14 14 14 13 13 13 13 12 12 12 11 11 11 11 11 11 11 11 11 11 11 10 10

ECMWFNIL_925_temp_003.txt.gz
Temp
18 18 18 17 17 18 17 17 16 16 16 16 16 16 16 16 16 16 16 16 16 16 16 16 16 16 16 16 16 16 16 16 16 16 16 15 15 15 15 14 14 15
17 18 18 17 17 18 18 17 17 17 17 16 16 16 16 16 16 16 16 16 16 16 16 16 16 16 16 16 16 16 16 16 16 16 15 15 15 15 15 14 14 14
16 17 18 17 17 18 18 18 17 17 17 17 16 16 16 16 16 16 16 16 16 16 15 16 16 16 16 16 16 16 16 16 15 15 15 15 15 15 15 14 14 14
16 17 18 18 18 18 18 18 17 17 17 17 17 16 16 16 16 16 16 16 16 16 15 15 15 15 16 16 16 16 15 15 15 15 15 15 15 15 15 14 14 14
17 17 17 17 18 18 18 18 18 17 17 17 17 16 16 16 16 16 16 16 16 16 15 16 15 15 15 16 16 15 15 15 15 15 15 15 15 15 15 14 14 14
18 18 17 17 17 18 18 18 19 18 18 17 17 17 16 16 16 16 16 16 16 16 16 16 16 15 16 15 15 15 15 15 15 15 15 15 15 15 14 15 14 14
19 18 17 16 16 18 18 19 19 18 18 17 17 17 17 16 16 16 16 16 16 16 16 16 16 16 16 16 16 16 15 15 15 15 15 15 15 15 15 15 15 14
19 19 19 17 16 17 18 18 18 19 18 18 17 17 17 17 17 16 16 16 16 17 16 16 16 16 16 16 16 16 16 16 16 15 15 15 15 15 15 15 15 15
19 18 18 16 15 16 17 17 17 17 18 18 18 17 17 17 17 17 16 16 16 17 16 16 16 16 16 16 16 16 16 16 16 16 16 16 15 15 15 15 15 15
17 17 16 17 16 16 17 16 16 16 16 17 17 17 16 16 17 17 16 16 16 16 16 16 16 16 16 16 16 16 16 16 16 16 16 16 16 16 15 15 15 15
16 16 17 18 17 16 16 16 16 16 16 15 15 15 16 16 17 16 16 16 16 17 17 17 17 17 16 16 16 16 16 16 16 16 16 16 16 16 16 16 15 15
15 16 16 17 17 16 16 16 16 16 15 15 14 14 15 15 15 14 14 14 15 16 17 17 17 17 16 16 16 16 16 16 16 16 16 16 16 16 16 16 16 16
14 15 15 16 16 16 16 16 16 16 16 15 15 15 15 14 14 14 14 14 13 14 16 17 17 17 16 16 16 16 16 16 16 16 16 16 16 16 16 16 16 16
14 14 15 15 15 15 15 15 15 16 15 15 15 15 15 15 14 14 14 14 14 14 15 16 16 16 16 16 16 16 16 16 16 16 16 16 16 16 15 15 16 16
15 15 14 14 14 15 14 15 15 15 15 15 15 14 15 15 15 15 14 15 14 14 15 15 16 16 16 16 15 15 15 15 15 15 15 15 15 15 15 15 15 16
15 15 14 14 15 15 14 15 16 16 16 16 15 15 15 16 15 15 15 15 15 15 15 15 15 15 15 15 15 15 15 15 15 15 15 15 15 15 15 15 15 15
16 15 15 15 16 15 15 16 17 17 16 15 14 15 15 15 14 14 15 15 14 15 15 15 15 15 15 15 15 14 14 14 14 14 14 14 14 14 14 15 15 15
16 15 15 16 16 16 16 16 16 16 15 14 14 15 15 15 14 14 15 15 14 15 15 15 15 15 15 14 14 14 14 14 14 14 14 14 14 14 14 14 14 15
15 15 15 15 16 16 16 16 16 16 15 14 15 15 15 15 14 15 15 15 14 15 15 15 15 15 15 14 15 15 15 15 15 15 14 14 14 14 14 14 14 14
14 14 14 15 15 15 15 15 15 15 15 15 15 15 15 14 15 15 14 14 14 14 15 15 15 15 15 15 15 15 15 15 15 15 14 14 14 14 13 13 13 13
14 13 13 14 14 14 15 15 15 15 15 15 15 15 14 14 14 14 14 14 14 15 15 15 14 14 14 14 14 14 14 14 14 14 14 14 13 13 13 12 12 13
14 14 14 14 14 15 15 15 15 15 15 15 15 15 15 15 14 14 15 15 15 15 14 14 14 14 14 14 14 14 14 13 13 13 13 13 12 12 12 12 12 12
15 15 15 15 16 16 16 15 15 15 15 15 15 15 15 15 15 15 15 15 15 15 14 14 14 14 14 14 14 14 13 13 13 12 13 12 12 11 11 11 11 11
15 16 16 16 16 16 16 15 15 15 15 15 15 15 15 15 15 15 15 15 15 15 14 14 14 14 13 13 13 13 13 13 12 12 12 12 11 11 11 11 11 10
15 15 16 16 16 15 15 15 15 15 15 15 15 15 15 15 15 15 14 14 14 14 14 13 13 13 13 12 12 12 12 12 12 12 12 11 11 11 10 10 10 10
14 14 15 15 15 15 15 15 15 15 15 15 15 14 14 14 14 14 14 14 14 13 13 13 12 12 12 12 11 11 11 11 11 11 11 11 11 11 10 10 10 10

ECMWFNIL_925_temp_006.txt.gz
Temp
17 18 17 17 17 17 16 16 16 16 15 16 16 16 16 16 16 16 16 16 16 16 16 16 16 16 16 15 15 16 16 16 15 15 15 15 15 15 15 15 15 15
17 17 17 17 17 17 16 16 16 16 16 15 16 16 16 16 16 16 16 16 16 16 16 16 16 16 16 16 16 16 16 16 15 15 15 15 15 15 15 15 15 15
16 16 16 16 16 16 16 17 16 16 16 16 15 15 16 16 16 16 16 15 16 16 16 16 16 16 16 16 16 16 16 16 15 15 15 15 15 15 15 15 15 15
15 15 16 16 17 16 16 17 17 16 16 16 16 15 15 15 15 15 15 15 15 15 16 16 16 16 16 16 16 16 16 16 15 15 15 15 15 15 15 15 15 14
15 15 16 17 17 17 16 17 17 17 17 17 16 16 15 15 15 15 15 15 15 15 15 15 15 16 16 16 15 15 15 15 15 15 15 15 15 15 15 15 15 14
15 15 16 17 17 17 16 17 17 17 17 17 17 16 16 16 15 15 15 15 15 15 15 15 15 15 15 15 15 15 15 15 15 15 15 15 15 15 15 15 15 15
15 15 16 17 17 17 17 17 17 17 17 18 17 17 16 16 16 15 15 15 15 15 15 15 15 15 15 15 15 15 15 15 15 15 15 15 14 14 14 14 15 15
16 15 15 15 16 17 17 17 17 17 17 18 18 18 17 17 16 16 16 15 15 15 15 15 15 15 15 15 15 15 15 15 15 15 15 14 14 14 14 14 14 15
16 16 15 14 14 15 16 17 17 17 17 17 18 18 17 17 16 16 16 16 15 15 15 15 15 15 15 15 15 15 15 15 15 15 15 15 15 15 14 14 14 14
15 15 15 13 14 14 15 16 17 17 16 16 17 17 17 17 17 16 16 16 16 16 15 15 15 15 15 15 15 15 15 15 15 15 15 15 15 15 15 15 14 14
14 14 13 13 14 15 15 16 17 17 16 16 16 16 16 16 16 16 16 15 15 15 15 15 15 15 15 15 15 15 15 15 15 15 15 15 15 15 15 15 15 15
14 14 13 13 14 15 15 15 16 16 16 16 16 16 15 14 15 15 15 15 14 15 15 15 15 15 15 15 14 14 15 15 15 16 16 16 15 15 15 15 15 15
14 14 14 14 15 15 15 15 15 16 16 15 15 15 15 14 14 14 14 14 14 15 15 15 14 14 14 14 14 14 14 15 15 15 15 16 16 15 15 15 15 15
14 14 14 15 15 15 15 15 15 15 15 14 15 15 15 14 14 14 14 15 14 14 14 14 14 14 14 14 14 13 14 15 15 15 15 15 15 15 15 15 15 15
14 14 15 15 15 14 14 15 15 14 14 14 14 14 14 14 14 14 14 14 14 13 14 14 13 13 13 13 13 13 14 14 15 15 15 15 15 15 15 15 15 15
14 15 15 15 15 14 14 14 14 14 15 15 14 14 14 14 14 14 14 14 14 14 14 13 13 13 13 13 13 14 14 14 15 15 14 14 14 14 15 15 15 15
14 14 14 15 15 14 14 14 14 15 15 15 14 14 14 14 14 14 14 14 14 14 14 13 13 13 13 13 14 14 14 14 14 14 14 14 14 14 14 14 14 14
13 12 12 13 12 13 13 13 14 15 15 14 14 14 14 14 14 15 15 15 15 14 14 13 13 13 13 13 14 14 14 14 14 14 14 14 14 14 14 14 14 14
12 11 11 12 12 13 14 14 14 15 14 14 14 14 15 15 15 15 15 15 15 14 13 13 13 13 13 14 14 14 14 14 14 14 13 13 13 13 13 13 13 13
11 11 12 12 13 14 14 14 14 14 13 13 14 14 14 14 14 14 15 15 14 14 13 12 13 13 13 14 14 14 14 14 14 13 13 13 13 13 13 13 13 13
12 12 12 13 14 14 14 13 13 13 13 13 14 14 15 15 15 15 15 15 14 14 13 13 13 13 13 14 14 14 14 14 14 13 13 13 13 13 13 13 12 12
12 12 13 13 13 13 13 13 13 13 13 14 14 14 15 15 15 15 15 14 14 14 14 13 13 13 14 14 13 13 13 13 13 13 13 13 13 12 12 12 12 12
13 13 13 13 13 13 13 13 13 13 13 13 14 14 14 14 14 14 14 14 14 14 14 14 14 14 14 13 13 13 13 13 13 13 13 13 12 12 12 12 12 11
13 13 13 13 13 13 13 13 13 13 13 14 14 14 14 15 15 14 14 14 14 14 14 13 13 13 13 13 12 12 12 12 12 12 12 12 12 11 11 11 11 11
13 13 13 13 13 14 14 14 14 14 14 14 15 15 14 14 14 14 14 14 14 14 13 13 13 13 12 12 12 12 12 12 12 11 11 11 11 11 11 10 10 10
13 13 13 13 13 14 14 14 14 14 14 14 14 14 14 14 14 14 14 13 13 13 13 12 12 12 12 12 11 11 11 11 11 11 11 11 10 10 10 10 10 9

ECMWFNIL_925_temp_009.txt.gz
Temp
18 18 18 18 17 17 16 16 16 16 16 16 16 16 16 16 16 15 15 15 15 15 15 15 15 15 15 15 15 16 16 15 15 15 15 15 15 15 15 15 15 15
17 17 17 17 17 16 16 16 16 15 15 16 16 16 16 16 16 15 15 15 15 15 15 15 15 15 15 15 15 16 15 15 15 15 15 15 15 15 15 15 15 15
16 16 16 16 16 16 16 16 15 15 15 16 16 16 16 16 16 16 15 15 15 15 15 15 15 15 15 15 15 15 15 15 15 15 15 15 15 15 15 15 15 15
15 16 16 16 16 16 16 15 15 15 15 16 16 16 15 15 16 16 15 15 15 15 16 16 16 15 15 15 15 15 15 14 14 14 14 14 14 14 14 14 14 14
16 16 16 16 17 17 17 16 15 16 16 16 16 16 16 15 16 16 15 15 15 15 16 16 16 16 15 15 15 15 15 14 14 14 14 14 14 14 14 14 14 14
17 16 16 16 16 17 18 17 17 16 16 16 16 16 16 16 15 16 16 15 15 15 15 15 15 15 15 15 15 15 15 15 14 14 14 14 14 14 14 14 14 14
17 16 16 16 16 17 18 18 17 16 16 16 16 16 17 16 16 16 15 15 15 15 15 15 15 15 15 15 15 15 15 15 15 15 15 14 14 14 14 14 14 14
17 16 16 16 16 16 16 16 16 15 16 16 16 16 17 17 16 16 16 15 15 15 15 15 15 15 15 15 15 15 15 15 15 15 15 15 15 14 14 14 14 14
17 16 16 16 16 16 15 15 15 15 15 16 16 16 16 16 17 16 16 15 15 15 15 15 15 15 15 15 15 14 14 14 15 15 15 15 15 15 14 14 14 14
17 16 16 16 17 16 15 15 15 15 15 15 16 16 16 16 16 16 16 15 15 15 15 15 15 15 15 15 14 14 14 14 14 14 14 14 14 14 14 15 14 14
17 16 16 16 16 16 15 14 15 15 15 15 15 16 17 16 16 15 16 16 15 15 15 14 15 14 14 14 14 14 14 14 14 14 14 14 14 15 15 15 15 14
15 16 16 16 16 15 15 14 14 14 15 15 15 15 16 16 16 15 15 15 15 15 14 14 14 14 14 14 14 14 14 14 14 14 14 14 14 15 15 15 15 15
15 15 16 16 16 15 14 14 14 14 14 15 15 15 16 16 16 15 15 15 15 15 14 14 14 14 13 14 14 14 14 14 14 15 15 15 15 15 15 15 15 15
14 15 16 16 16 15 15 14 14 14 14 15 15 15 15 15 15 15 15 14 14 14 14 14 14 14 13 13 13 13 13 14 14 15 15 15 15 15 15 15 15 15
14 14 15 15 15 15 15 14 13 14 14 14 15 15 14 14 14 14 14 13 13 14 14 14 14 13 13 13 13 13 13 13 14 14 15 15 15 15 15 15 15 15
13 13 14 14 14 14 15 14 14 14 14 13 14 14 14 13 13 14 14 13 13 14 14 14 13 13 13 14 13 13 12 13 13 14 14 14 14 15 15 15 15 15
13 13 13 14 14 14 14 14 14 14 14 13 14 13 13 13 13 13 14 14 14 14 14 13 13 13 14 14 13 13 12 13 13 13 14 14 14 14 14 14 14 14
12 12 13 13 13 13 13 13 13 13 13 14 13 13 13 14 13 13 14 15 14 13 13 13 14 14 14 13 13 12 13 13 14 14 14 14 14 14 14 14 14 14
12 12 12 12 12 12 12 12 12 13 13 13 13 13 13 14 14 13 14 14 14 13 13 13 14 15 15 13 13 13 13 13 14 14 14 14 14 13 13 13 13 13
12 11 12 12 12 12 12 12 12 13 13 13 13 12 13 13 13 13 14 14 13 13 13 13 14 15 14 13 13 13 13 13 13 13 13 13 13 13 13 13 13 13
11 11 12 12 12 12 12 12 12 12 13 13 13 13 13 13 13 13 14 14 13 13 13 13 14 14 14 13 13 13 13 13 13 13 13 13 13 13 13 13 12 12
12 11 11 11 11 11 12 12 12 12 12 12 12 12 13 13 13 13 13 13 13 13 13 13 14 13 13 13 13 13 13 13 13 13 13 13 12 12 12 12 12 12
12 12 12 12 11 11 12 12 12 12 12 12 11 11 12 12 12 13 13 13 13 13 13 13 13 12 13 13 13 13 13 13 13 13 12 12 12 12 12 12 12 12
12 12 12 12 12 12 12 13 12 12 12 12 11 11 11 11 11 12 12 12 13 13 13 13 13 12 13 13 13 13 13 13 13 12 12 12 12 11 11 11 11 11
12 12 12 12 13 12 12 12 12 12 12 12 12 12 13 11 11 11 12 12 12 12 13 13 13 13 13 13 13 13 12 12 12 12 12 11 11 11 11 10 10 10
12 12 12 12 13 13 13 13 13 12 12 12 12 12 13 12 12 12 13 13 13 12 12 13 13 12 12 12 12 12 12 12 12 11 11 11 11 10 10 10 9 9

ECMWFNIL_925_temp_012.txt.gz
Temp
17 17 17 17 17 17 17 17 17 17 17 18 17 17 17 16 16 16 16 15 15 15 15 15 15 16 16 16 16 17 16 16 16 16 16 16 16 16 16 16 16 17
18 17 17 16 17 16 16 16 16 17 17 17 17 17 16 16 15 15 15 15 15 15 15 15 15 15 16 16 16 16 16 16 16 16 16 16 16 16 15 16 16 16
17 17 17 17 16 16 16 16 16 16 16 16 16 16 16 16 15 15 15 15 15 15 15 15 15 15 16 16 16 16 16 15 15 15 16 16 16 15 15 15 16 16
17 17 17 17 16 16 16 16 17 16 16 16 16 16 16 15 16 15 15 15 15 15 15 15 15 15 15 15 16 16 15 15 15 15 15 15 15 15 15 15 16 16
17 17 17 16 16 17 16 16 17 17 16 15 16 16 16 16 16 16 16 16 16 16 15 15 15 15 15 15 16 16 15 15 15 15 16 15 15 15 15 15 15 15
17 17 17 16 17 18 17 16 17 17 16 16 16 16 16 16 16 16 16 16 16 16 16 16 15 15 15 15 16 16 16 16 15 15 16 16 15 15 15 15 16 16
16 17 17 17 17 17 17 16 17 17 16 16 16 16 16 16 16 17 16 16 16 16 16 16 16 15 15 16 16 16 16 16 15 16 16 16 16 16 16 16 16 16
16 16 16 17 17 17 16 16 16 16 17 16 16 15 16 17 17 16 16 17 17 16 16 16 16 16 15 16 16 16 15 15 15 16 16 16 16 16 16 16 16 16
16 16 16 17 17 16 16 15 16 16 17 16 16 15 16 16 16 16 16 16 16 16 16 16 16 16 15 15 16 16 16 15 15 16 16 16 16 16 16 16 15 16
16 16 16 16 17 17 16 16 16 16 16 16 16 16 16 16 16 16 16 16 16 16 16 15 15 15 15 15 15 15 15 15 15 15 16 16 16 16 16 16 16 16
17 16 17 17 17 17 16 15 16 16 16 16 16 16 16 16 16 16 16 16 16 16 16 16 16 15 15 15 15 15 15 15 15 15 15 16 16 16 16 16 16 16
17 17 17 16 17 17 16 16 16 16 16 16 16 16 16 16 16 16 16 16 16 16 16 16 16 16 15 15 15 15 15 15 15 15 15 16 16 16 16 16 16 16
17 17 17 16 16 16 16 16 16 16 16 16 16 16 16 16 16 16 16 16 16 16 16 16 16 15 15 15 15 15 15 15 15 15 16 16 16 16 16 16 16 16
17 16 16 16 16 16 16 16 16 16 16 16 16 16 16 16 16 16 16 16 16 16 16 15 15 15 14 14 15 15 15 15 15 15 15 15 16 16 16 16 16 16
16 16 16 16 16 16 16 15 15 15 15 15 16 16 16 16 16 16 16 16 16 15 15 14 14 14 14 14 14 14 14 14 14 14 14 15 15 15 16 16 16 16
16 16 16 16 16 16 16 15 15 15 15 15 15 16 16 15 15 15 15 15 15 15 14 14 15 15 15 15 15 14 14 14 14 14 14 14 14 15 15 16 16 16
16 16 16 16 16 16 16 15 15 15 15 15 15 15 15 15 15 15 15 15 15 15 14 14 15 15 15 15 15 14 14 13 13 14 14 13 13 14 15 16 16 16
16 16 16 16 16 16 16 15 15 15 15 15 15 14 14 14 14 15 15 15 15 15 15 15 15 15 15 15 15 15 14 14 13 14 14 14 13 14 15 15 15 15
16 16 16 16 16 16 16 15 15 16 16 15 15 14 14 14 14 14 14 14 14 14 14 15 15 14 14 14 14 14 14 14 14 13 14 13 13 13 14 14 14 14
15 16 16 16 16 15 15 15 15 15 15 15 15 14 14 14 14 13 13 13 13 13 14 14 14 14 14 14 14 14 14 14 13 13 13 13 13 13 13 13 13 13
15 15 15 15 16 15 15 15 15 15 15 15 14 14 14 14 14 13 13 13 13 13 14 14 14 14 14 14 14 13 13 13 13 13 13 13 13 13 13 13 13 13
14 14 14 15 15 15 15 15 15 15 14 14 14 14 14 14 14 14 13 13 13 13 13 14 14 14 13 14 13 13 13 13 13 13 14 13 13 12 12 12 12 12
14 14 14 14 14 15 15 15 15 14 14 14 14 14 14 14 14 14 13 13 13 13 13 14 14 13 13 13 13 13 14 14 14 14 14 13 13 12 12 12 12 12
14 14 14 14 14 15 15 15 14 14 14 14 14 14 13 14 13 13 13 13 13 12 12 12 12 13 13 13 13 14 13 14 14 14 13 13 12 12 12 12 12 12
13 13 13 14 14 14 14 14 14 14 14 14 13 13 13 13 13 13 12 12 12 12 12 12 12 12 12 13 13 13 13 14 14 14 13 13 13 12 11 11 11 11
12 12 12 13 13 14 14 14 14 14 14 14 14 13 14 13 13 13 12 12 12 12 12 11 12 12 12 12 13 13 13 14 14 14 13 13 13 12 12 11 10 10